EW8320 Weather Reports


Display with metric or nautical units.
time (UTC)temp
F
wind
direction
speed
MPH
gust
MPH
rain 1hr
in
rain 24hr
in
rain mn
in
humidity
%
barometer
mb
20260505073817 48 202 0.0 0.0 0.00 0.00 0.00 89 1013.9
20260505072818 45 202 0.0 0.0 0.00 0.00 0.00 77 1013.9
20260505071818 45 180 0.0 0.0 0.00 0.00 0.00 76 1013.8
20260505070819 46 202 0.0 0.0 0.00 0.00 0.00 75 1013.8
20260505065831 47 239 0.0 0.0 0.00 0.00 0.00 73 1013.8
20260505064831 47 261 0.0 0.0 0.00 0.00 0.00 73 1013.6
20260505063927 47 292 0.0 0.0 0.00 0.00 0.00 74 1013.4
20260505061929 47 59 0.0 0.0 0.00 0.00 0.00 73 1013.6
20260505060931 47 291 0.0 0.0 0.00 0.00 0.00 73 1013.5
20260505055929 47 360 0.0 0.0 0.00 0.00 0.00 73 1013.5
20260505054929 48 45 0.0 0.0 0.00 0.00 0.00 72 1013.5
20260505053929 48 360 0.0 0.0 0.00 0.00 0.00 71 1013.4
20260505052928 48 247 0.0 0.0 0.00 0.00 0.00 70 1013.5
20260505051932 48 251 0.0 0.0 0.00 0.00 0.00 71 1013.6
20260505050928 49 242 0.0 0.0 0.00 0.00 0.00 69 1013.7
20260505035228 53 180 0.0 0.0 0.00 0.00 0.00 58 1013.6
20260505034232 54 209 0.0 0.0 0.00 0.00 0.00 56 1013.4
20260505032329 56 337 0.0 0.0 0.00 0.00 0.00 50 1013.2
20260505030527 59 315 0.0 0.0 0.00 0.00 0.00 47 1012.9
20260505030444 59 315 0.0 0.0 0.00 0.00 0.00 47 1013.0
20260505025530 59 345 0.0 0.0 0.00 0.00 0.00 47 1012.8
20260505024627 60 344 0.0 0.0 0.00 0.00 0.00 47 1012.6
20260505023630 62 334 0.0 0.0 0.00 0.00 0.00 45 1012.4
20260505022644 63 22 0.0 0.0 0.00 0.00 0.00 41 1012.3
20260505021630 64 45 0.0 0.0 0.00 0.00 0.00 39 1012.3
20260505020728 64 53 0.0 0.0 0.00 0.00 0.00 38 1012.1
20260505015729 65 39 0.0 0.0 0.00 0.00 0.00 36 1012.1
20260505014827 66 51 0.0 0.0 0.00 0.00 0.00 37 1012.0
20260505013828 66 62 0.0 0.0 0.00 0.00 0.00 35 1012.0
20260505012927 68 75 0.0 0.0 0.00 0.00 0.00 34 1011.9
20260505012829 68 71 0.0 0.0 0.00 0.00 0.00 33 1011.9
20260505011829 69 58 0.0 0.0 0.00 0.00 0.00 33 1011.9
20260505010829 69 84 0.0 0.0 0.00 0.00 0.00 30 1011.9
20260505005928 69 94 0.0 0.0 0.00 0.00 0.00 30 1011.7
20260505002129 70 88 0.0 0.0 0.00 0.00 0.00 27 1011.6
20260505001128 71 97 0.0 0.0 0.00 0.00 0.00 27 1011.5
20260505000129 71 94 0.0 0.0 0.00 0.00 0.00 27 1011.6
20260504234227 71 98 0.0 0.0 0.00 0.00 0.00 27 1011.6
20260504234128 71 153 0.0 0.0 0.00 0.00 0.00 27 1011.5
20260504232231 71 92 0.0 2.0 0.00 0.00 0.00 26 1011.4
20260504231327 71 93 0.0 0.0 0.00 0.00 0.00 26 1011.5
20260504225330 71 98 0.0 0.0 0.00 0.00 0.00 27 1011.7
20260504224328 71 118 0.0 0.0 0.00 0.00 0.00 26 1011.9
20260504223428 73 105 0.0 0.0 0.00 0.00 0.00 27 1011.9
20260504222429 72 71 0.0 0.0 0.00 0.00 0.00 28 1012.0
20260504221427 73 100 0.0 0.0 0.00 0.00 0.00 29 1012.0
20260504220429 73 143 0.0 0.0 0.00 0.00 0.00 29 1012.1
20260504215428 73 145 0.0 0.0 0.00 0.00 0.00 30 1012.1
20260504214431 73 115 0.0 0.0 0.00 0.00 0.00 31 1012.3
20260504213528 68 80 0.0 0.0 0.00 0.00 0.00 31 1012.5
20260504212529 67 115 0.0 0.0 0.00 0.00 0.00 32 1012.5
20260504211531 69 121 0.0 0.0 0.00 0.00 0.00 31 1012.6
20260504210531 71 94 0.0 0.0 0.00 0.00 0.00 31 1012.8
20260504205530 73 79 0.0 0.0 0.00 0.00 0.00 31 1012.7
20260504203628 72 313 0.0 0.0 0.00 0.00 0.00 31 1012.8
20260504202627 72 4 0.0 0.0 0.00 0.00 0.00 31 1013.0
20260504201628 72 90 0.0 0.0 0.00 0.00 0.00 32 1013.0
20260504200630 72 110 0.0 0.0 0.00 0.00 0.00 32 1013.1
20260504195729 71 90 0.0 0.0 0.00 0.00 0.00 32 1013.1
20260504194828 72 157 0.0 0.0 0.00 0.00 0.00 34 1013.0
20260504193927 71 189 0.0 0.0 0.00 0.00 0.00 35 1013.4
20260504192928 70 69 0.0 0.0 0.00 0.00 0.00 37 1013.3
20260504190928 69 90 0.0 0.0 0.00 0.00 0.00 40 1013.4
20260504185929 69 109 0.0 0.0 0.00 0.00 0.00 44 1013.6
20260504185027 67 98 0.0 0.0 0.00 0.00 0.00 44 1013.7
20260504184030 67 89 0.0 0.0 0.00 0.00 0.00 44 1013.8
20260504183030 67 94 0.0 0.0 0.00 0.00 0.00 46 1013.9
20260504182929 67 105 0.0 0.0 0.00 0.00 0.00 46 1013.9
20260504181928 67 97 0.0 0.0 0.00 0.00 0.00 46 1014.0
20260504181028 67 118 0.0 0.0 0.00 0.00 0.00 46 1014.0
20260504180127 67 96 0.0 0.0 0.00 0.00 0.00 43 1013.9
20260504175130 67 46 0.0 0.0 0.00 0.00 0.00 43 1013.9
20260504174128 65 98 0.0 0.0 0.00 0.00 0.00 41 1013.9
20260504173227 65 48 0.0 0.0 0.00 0.00 0.00 46 1014.0
20260504172230 60 90 0.0 0.0 0.00 0.00 0.00 49 1014.0
20260504171229 60 90 0.0 0.0 0.00 0.00 0.00 53 1014.2
20260504170229 60 111 0.0 0.0 0.00 0.00 0.00 54 1014.2
20260504160227 44 270 0.0 0.0 0.00 0.00 0.00 46 1014.8
20260504150328 38 248 0.0 0.0 0.00 0.00 0.00 65 1014.9
20260504150228 38 261 0.0 0.0 0.00 0.00 0.00 65 1014.9
20260504141326 39 271 0.0 0.0 0.00 0.00 0.00 73 1015.0
20260504130436 35 247 0.0 0.0 0.00 0.00 0.00 80 1014.3
20260504110529 37 262 0.0 0.0 0.00 0.00 0.00 76 1014.8
20260504081829 46 261 0.0 0.0 0.00 0.00 0.00 71 1015.1
20260504080829 46 276 0.0 0.0 0.00 0.00 0.00 71 1015.2